owner,sensor,date,latitude,longitude,vertical_datum,sea_water_practical_salinity,qcFlag 
DISL,ioos:station:DISL:MHPA:1,2012-10-01T00:00:00Z,30.6671,-87.9365,4.819,1.84,1111122 
DISL,ioos:station:DISL:MHPA:1,2012-10-01T00:30:00Z,30.6671,-87.9365,4.898,1.86,1111122 
DISL,ioos:station:DISL:MHPA:1,2012-10-01T01:00:00Z,30.6671,-87.9365,5.087,1.88,1111122 
DISL,ioos:station:DISL:MHPA:1,2012-10-01T01:30:00Z,30.6671,-87.9365,5.205,1.91,1111122 
DISL,ioos:station:DISL:MHPA:1,2012-10-01T02:00:00Z,30.6671,-87.9365,5.119,1.93,1111122 
DISL,ioos:station:DISL:MHPA:1,2012-10-01T02:30:00Z,30.6671,-87.9365,5.051,1.93,1111122 
DISL,ioos:station:DISL:MHPA:1,2012-10-01T03:00:00Z,30.6671,-87.9365,5.235,1.95,1111122 
DISL,ioos:station:DISL:MHPA:1,2012-10-01T03:30:00Z,30.6671,-87.9365,5.326,1.91,1111122 
DISL,ioos:station:DISL:MHPA:1,2012-10-01T04:00:00Z,30.6671,-87.9365,5.38,1.89,1111122 
DISL,ioos:station:DISL:MHPA:1,2012-10-01T04:30:00Z,30.6671,-87.9365,5.592,1.85,1111122 
DISL,ioos:station:DISL:MHPA:1,2012-10-01T05:00:00Z,30.6671,-87.9365,5.819,1.7,1111122 
DISL,ioos:station:DISL:MHPA:1,2012-10-01T05:30:00Z,30.6671,-87.9365,6.263,1.73,1111122 
DISL,ioos:station:DISL:MHPA:1,2012-10-01T06:00:00Z,30.6671,-87.9365,5.997,1.71,1111122 
DISL,ioos:station:DISL:MHPA:1,2012-10-01T06:30:00Z,30.6671,-87.9365,5.746,1.73,1111122 
DISL,ioos:station:DISL:MHPA:1,2012-10-01T07:00:00Z,30.6671,-87.9365,5.797,1.8,1111122 
DISL,ioos:station:DISL:MHPA:1,2012-10-01T07:30:00Z,30.6671,-87.9365,5.698,1.82,1111122 
DISL,ioos:station:DISL:MHPA:1,2012-10-01T08:00:00Z,30.6671,-87.9365,5.717,1.8,1111122 
DISL,ioos:station:DISL:MHPA:1,2012-10-01T08:30:00Z,30.6671,-87.9365,5.468,1.83,1111122 
DISL,ioos:station:DISL:MHPA:1,2012-10-01T09:00:00Z,30.6671,-87.9365,5.228,1.81,1111122 
DISL,ioos:station:DISL:MHPA:1,2012-10-01T09:30:00Z,30.6671,-87.9365,5.403,1.82,1111122 
DISL,ioos:station:DISL:MHPA:1,2012-10-01T10:00:00Z,30.6671,-87.9365,5.439,1.8,1111122 
DISL,ioos:station:DISL:MHPA:1,2012-10-01T10:30:00Z,30.6671,-87.9365,5.324,1.77,1111122 
DISL,ioos:station:DISL:MHPA:1,2012-10-01T11:00:00Z,30.6671,-87.9365,5.157,1.81,1111122 
DISL,ioos:station:DISL:MHPA:1,2012-10-01T11:30:00Z,30.6671,-87.9365,5.006,1.78,1111122 
DISL,ioos:station:DISL:MHPA:1,2012-10-01T12:00:00Z,30.6671,-87.9365,4.895,1.78,1111122 
DISL,ioos:station:DISL:MHPA:1,2012-10-01T12:30:00Z,30.6671,-87.9365,4.85,1.8,1111122 
DISL,ioos:station:DISL:MHPA:1,2012-10-01T13:00:00Z,30.6671,-87.9365,4.778,1.78,1111122 
DISL,ioos:station:DISL:MHPA:1,2012-10-01T13:30:00Z,30.6671,-87.9365,4.738,1.82,1111122 
DISL,ioos:station:DISL:MHPA:1,2012-10-01T14:00:00Z,30.6671,-87.9365,4.643,1.82,1111122 
DISL,ioos:station:DISL:MHPA:1,2012-10-01T14:30:00Z,30.6671,-87.9365,4.594,1.79,1111122 
DISL,ioos:station:DISL:MHPA:1,2012-10-01T15:00:00Z,30.6671,-87.9365,4.533,1.82,1111122 
DISL,ioos:station:DISL:MHPA:1,2012-10-01T15:30:00Z,30.6671,-87.9365,4.456,1.82,1111122 
DISL,ioos:station:DISL:MHPA:1,2012-10-01T16:00:00Z,30.6671,-87.9365,4.606,1.83,1111122 
DISL,ioos:station:DISL:MHPA:1,2012-10-01T16:30:00Z,30.6671,-87.9365,4.493,1.79,1111122 
DISL,ioos:station:DISL:MHPA:1,2012-10-01T17:00:00Z,30.6671,-87.9365,4.343,1.81,1111122 
DISL,ioos:station:DISL:MHPA:1,2012-10-01T17:30:00Z,30.6671,-87.9365,4.516,1.82,1111122 
DISL,ioos:station:DISL:MHPA:1,2012-10-01T18:00:00Z,30.6671,-87.9365,4.607,1.82,1111122 
DISL,ioos:station:DISL:MHPA:1,2012-10-01T18:30:00Z,30.6671,-87.9365,4.437,1.76,1111122 
DISL,ioos:station:DISL:MHPA:1,2012-10-01T19:00:00Z,30.6671,-87.9365,4.475,1.8,1111122 
DISL,ioos:station:DISL:MHPA:1,2012-10-01T19:30:00Z,30.6671,-87.9365,4.617,1.83,1111122 
DISL,ioos:station:DISL:MHPA:1,2012-10-01T20:00:00Z,30.6671,-87.9365,4.607,1.78,1111122 
DISL,ioos:station:DISL:MHPA:1,2012-10-01T20:30:00Z,30.6671,-87.9365,4.658,1.78,1111122 
DISL,ioos:station:DISL:MHPA:1,2012-10-01T21:00:00Z,30.6671,-87.9365,4.659,1.84,1111122 
DISL,ioos:station:DISL:MHPA:1,2012-10-01T21:30:00Z,30.6671,-87.9365,4.733,1.84,1111122 
DISL,ioos:station:DISL:MHPA:1,2012-10-01T22:00:00Z,30.6671,-87.9365,4.706,1.83,1111122 
DISL,ioos:station:DISL:MHPA:1,2012-10-01T22:30:00Z,30.6671,-87.9365,4.637,1.86,1111122 
DISL,ioos:station:DISL:MHPA:1,2012-10-01T23:00:00Z,30.6671,-87.9365,4.508,1.87,1111122 
DISL,ioos:station:DISL:MHPA:1,2012-10-01T23:30:00Z,30.6671,-87.9365,4.497,1.86,1111122 
DISL,ioos:station:DISL:MHPA:1,2012-10-02T00:00:00Z,30.6671,-87.9365,4.451,1.94,1111122 
DISL,ioos:station:DISL:MHPA:1,2012-10-02T00:30:00Z,30.6671,-87.9365,4.425,1.88,1111122 
DISL,ioos:station:DISL:MHPA:1,2012-10-02T01:00:00Z,30.6671,-87.9365,4.349,1.95,1111122 
DISL,ioos:station:DISL:MHPA:1,2012-10-02T01:30:00Z,30.6671,-87.9365,4.386,1.96,1111122 
DISL,ioos:station:DISL:MHPA:1,2012-10-02T02:00:00Z,30.6671,-87.9365,4.391,1.99,1111122 
DISL,ioos:station:DISL:MHPA:1,2012-10-02T02:30:00Z,30.6671,-87.9365,4.334,2.01,1111122 
DISL,ioos:station:DISL:MHPA:1,2012-10-02T03:00:00Z,30.6671,-87.9365,4.403,2.02,1111122 
DISL,ioos:station:DISL:MHPA:1,2012-10-02T03:30:00Z,30.6671,-87.9365,4.436,2.04,1111122 
DISL,ioos:station:DISL:MHPA:1,2012-10-02T04:00:00Z,30.6671,-87.9365,4.428,2.04,1111122 
DISL,ioos:station:DISL:MHPA:1,2012-10-02T04:30:00Z,30.6671,-87.9365,4.392,2.05,1111122 
DISL,ioos:station:DISL:MHPA:1,2012-10-02T05:00:00Z,30.6671,-87.9365,4.388,2.05,1111122 
DISL,ioos:station:DISL:MHPA:1,2012-10-02T05:30:00Z,30.6671,-87.9365,4.383,2.07,1111122 
DISL,ioos:station:DISL:MHPA:1,2012-10-02T06:00:00Z,30.6671,-87.9365,4.486,2.07,1111122 
DISL,ioos:station:DISL:MHPA:1,2012-10-02T06:30:00Z,30.6671,-87.9365,4.489,2.08,1111122 
DISL,ioos:station:DISL:MHPA:1,2012-10-02T07:00:00Z,30.6671,-87.9365,4.524,2.08,1111122 
DISL,ioos:station:DISL:MHPA:1,2012-10-02T07:30:00Z,30.6671,-87.9365,4.531,2.08,1111122 
DISL,ioos:station:DISL:MHPA:1,2012-10-02T08:00:00Z,30.6671,-87.9365,4.479,2.09,1111122 
DISL,ioos:station:DISL:MHPA:1,2012-10-02T08:30:00Z,30.6671,-87.9365,4.455,2.09,1111122 
DISL,ioos:station:DISL:MHPA:1,2012-10-02T09:00:00Z,30.6671,-87.9365,4.344,2.08,1111122 
DISL,ioos:station:DISL:MHPA:1,2012-10-02T09:30:00Z,30.6671,-87.9365,4.273,2.08,1111122 
DISL,ioos:station:DISL:MHPA:1,2012-10-02T10:00:00Z,30.6671,-87.9365,4.177,2.09,1111122 
DISL,ioos:station:DISL:MHPA:1,2012-10-02T10:30:00Z,30.6671,-87.9365,4.032,2.09,1111122 
DISL,ioos:station:DISL:MHPA:1,2012-10-02T11:00:00Z,30.6671,-87.9365,3.945,2.08,1111122 
DISL,ioos:station:DISL:MHPA:1,2012-10-02T11:30:00Z,30.6671,-87.9365,3.866,2.09,1111122 
DISL,ioos:station:DISL:MHPA:1,2012-10-02T12:00:00Z,30.6671,-87.9365,3.769,2.09,1111122 
DISL,ioos:station:DISL:MHPA:1,2012-10-02T12:30:00Z,30.6671,-87.9365,3.674,2.1,1111122 
DISL,ioos:station:DISL:MHPA:1,2012-10-02T13:00:00Z,30.6671,-87.9365,3.561,2.11,1111122 
DISL,ioos:station:DISL:MHPA:1,2012-10-02T13:30:00Z,30.6671,-87.9365,3.473,2.11,1111122 
DISL,ioos:station:DISL:MHPA:1,2012-10-02T14:00:00Z,30.6671,-87.9365,3.37,2.12,1111122 
DISL,ioos:station:DISL:MHPA:1,2012-10-02T14:30:00Z,30.6671,-87.9365,3.301,2.12,1111122 
DISL,ioos:station:DISL:MHPA:1,2012-10-02T15:00:00Z,30.6671,-87.9365,3.252,2.13,1111122 
DISL,ioos:station:DISL:MHPA:1,2012-10-02T15:30:00Z,30.6671,-87.9365,3.202,2.13,1111122 
DISL,ioos:station:DISL:MHPA:1,2012-10-02T16:00:00Z,30.6671,-87.9365,3.183,2.11,1111122 
DISL,ioos:station:DISL:MHPA:1,2012-10-02T16:30:00Z,30.6671,-87.9365,3.216,2.13,1111122 
DISL,ioos:station:DISL:MHPA:1,2012-10-02T17:00:00Z,30.6671,-87.9365,3.181,2.13,1111122 
DISL,ioos:station:DISL:MHPA:1,2012-10-02T17:30:00Z,30.6671,-87.9365,3.127,2.1,1111122 
DISL,ioos:station:DISL:MHPA:1,2012-10-02T18:00:00Z,30.6671,-87.9365,3.162,2.13,1111122 
DISL,ioos:station:DISL:MHPA:1,2012-10-02T18:30:00Z,30.6671,-87.9365,3.225,2.12,1111122 
DISL,ioos:station:DISL:MHPA:1,2012-10-02T19:00:00Z,30.6671,-87.9365,3.229,2.12,1111122 
DISL,ioos:station:DISL:MHPA:1,2012-10-02T19:30:00Z,30.6671,-87.9365,3.317,2.13,1111122 
DISL,ioos:station:DISL:MHPA:1,2012-10-02T20:00:00Z,30.6671,-87.9365,3.444,2.13,1111122 
DISL,ioos:station:DISL:MHPA:1,2012-10-02T20:30:00Z,30.6671,-87.9365,3.585,2.14,1111122 
DISL,ioos:station:DISL:MHPA:1,2012-10-02T21:00:00Z,30.6671,-87.9365,3.689,2.12,1111122 
DISL,ioos:station:DISL:MHPA:1,2012-10-02T21:30:00Z,30.6671,-87.9365,3.739,2.12,1111122 
DISL,ioos:station:DISL:MHPA:1,2012-10-02T22:00:00Z,30.6671,-87.9365,3.817,2.12,1111122 
DISL,ioos:station:DISL:MHPA:1,2012-10-02T22:30:00Z,30.6671,-87.9365,3.9,2.12,1111122 
DISL,ioos:station:DISL:MHPA:1,2012-10-02T23:00:00Z,30.6671,-87.9365,3.912,2.12,1111122 
DISL,ioos:station:DISL:MHPA:1,2012-10-02T23:30:00Z,30.6671,-87.9365,3.984,2.13,1111122 
DISL,ioos:station:DISL:MHPA:1,2012-10-03T00:00:00Z,30.6671,-87.9365,4.03,2.14,1111122 
DISL,ioos:station:DISL:MHPA:1,2012-10-03T00:30:00Z,30.6671,-87.9365,4.052,2.15,1111122 
DISL,ioos:station:DISL:MHPA:1,2012-10-03T01:00:00Z,30.6671,-87.9365,4.096,2.15,1111122 
DISL,ioos:station:DISL:MHPA:1,2012-10-03T01:30:00Z,30.6671,-87.9365,4.185,2.14,1111122 
DISL,ioos:station:DISL:MHPA:1,2012-10-03T02:00:00Z,30.6671,-87.9365,4.267,2.16,1111122 
DISL,ioos:station:DISL:MHPA:1,2012-10-03T02:30:00Z,30.6671,-87.9365,4.319,2.18,1111122 
DISL,ioos:station:DISL:MHPA:1,2012-10-03T03:00:00Z,30.6671,-87.9365,4.402,2.16,1111122 
DISL,ioos:station:DISL:MHPA:1,2012-10-03T03:30:00Z,30.6671,-87.9365,4.416,2.16,1111122 
DISL,ioos:station:DISL:MHPA:1,2012-10-03T04:00:00Z,30.6671,-87.9365,4.447,2.16,1111122 
DISL,ioos:station:DISL:MHPA:1,2012-10-03T04:30:00Z,30.6671,-87.9365,4.502,2.16,1111122 
DISL,ioos:station:DISL:MHPA:1,2012-10-03T05:00:00Z,30.6671,-87.9365,4.577,2.16,1111122 
DISL,ioos:station:DISL:MHPA:1,2012-10-03T05:30:00Z,30.6671,-87.9365,4.6,2.18,1111122 
DISL,ioos:station:DISL:MHPA:1,2012-10-03T06:00:00Z,30.6671,-87.9365,4.651,2.19,1111122 
DISL,ioos:station:DISL:MHPA:1,2012-10-03T06:30:00Z,30.6671,-87.9365,4.637,2.2,1111122 
DISL,ioos:station:DISL:MHPA:1,2012-10-03T07:00:00Z,30.6671,-87.9365,4.613,2.2,1111122 
DISL,ioos:station:DISL:MHPA:1,2012-10-03T07:30:00Z,30.6671,-87.9365,4.646,2.21,1111122 
DISL,ioos:station:DISL:MHPA:1,2012-10-03T08:00:00Z,30.6671,-87.9365,4.564,2.21,1111122 
DISL,ioos:station:DISL:MHPA:1,2012-10-03T08:30:00Z,30.6671,-87.9365,4.425,2.22,1111122 
DISL,ioos:station:DISL:MHPA:1,2012-10-03T09:00:00Z,30.6671,-87.9365,4.295,2.24,1111122 
DISL,ioos:station:DISL:MHPA:1,2012-10-03T09:30:00Z,30.6671,-87.9365,4.165,2.25,1111122 
DISL,ioos:station:DISL:MHPA:1,2012-10-03T10:00:00Z,30.6671,-87.9365,4.034,2.24,1111122 
DISL,ioos:station:DISL:MHPA:1,2012-10-03T10:30:00Z,30.6671,-87.9365,3.927,2.23,1111122 
DISL,ioos:station:DISL:MHPA:1,2012-10-03T11:00:00Z,30.6671,-87.9365,3.828,2.23,1111122 
DISL,ioos:station:DISL:MHPA:1,2012-10-03T11:30:00Z,30.6671,-87.9365,3.757,2.23,1111122 
DISL,ioos:station:DISL:MHPA:1,2012-10-03T12:00:00Z,30.6671,-87.9365,3.638,2.24,1111122 
DISL,ioos:station:DISL:MHPA:1,2012-10-03T12:30:00Z,30.6671,-87.9365,3.532,2.24,1111122 
DISL,ioos:station:DISL:MHPA:1,2012-10-03T13:00:00Z,30.6671,-87.9365,3.436,2.23,1111122 
DISL,ioos:station:DISL:MHPA:1,2012-10-03T13:30:00Z,30.6671,-87.9365,3.351,2.22,1111122 
DISL,ioos:station:DISL:MHPA:1,2012-10-03T14:00:00Z,30.6671,-87.9365,3.282,2.19,1111122 
DISL,ioos:station:DISL:MHPA:1,2012-10-03T14:30:00Z,30.6671,-87.9365,3.206,2.21,1111122 
DISL,ioos:station:DISL:MHPA:1,2012-10-03T15:00:00Z,30.6671,-87.9365,3.121,2.21,1111122 
DISL,ioos:station:DISL:MHPA:1,2012-10-03T15:30:00Z,30.6671,-87.9365,3.073,2.21,1111122 
DISL,ioos:station:DISL:MHPA:1,2012-10-03T16:00:00Z,30.6671,-87.9365,3.057,2.21,1111122 
DISL,ioos:station:DISL:MHPA:1,2012-10-03T16:30:00Z,30.6671,-87.9365,3.068,2.2,1111122 
DISL,ioos:station:DISL:MHPA:1,2012-10-03T17:00:00Z,30.6671,-87.9365,3.097,2.25,1111122 
DISL,ioos:station:DISL:MHPA:1,2012-10-03T17:30:00Z,30.6671,-87.9365,3.126,2.25,1111122 
DISL,ioos:station:DISL:MHPA:1,2012-10-03T18:00:00Z,30.6671,-87.9365,3.132,2.24,1111122 
DISL,ioos:station:DISL:MHPA:1,2012-10-03T18:30:00Z,30.6671,-87.9365,3.148,2.24,1111122 
DISL,ioos:station:DISL:MHPA:1,2012-10-03T19:00:00Z,30.6671,-87.9365,3.274,2.22,1111122 
DISL,ioos:station:DISL:MHPA:1,2012-10-03T19:30:00Z,30.6671,-87.9365,3.336,2.24,1111122 
DISL,ioos:station:DISL:MHPA:1,2012-10-03T20:00:00Z,30.6671,-87.9365,3.399,2.24,1111122 
DISL,ioos:station:DISL:MHPA:1,2012-10-03T20:30:00Z,30.6671,-87.9365,3.507,2.25,1111122 
DISL,ioos:station:DISL:MHPA:1,2012-10-03T21:00:00Z,30.6671,-87.9365,3.621,2.24,1111122 
DISL,ioos:station:DISL:MHPA:1,2012-10-03T21:30:00Z,30.6671,-87.9365,3.68,2.24,1111122 
DISL,ioos:station:DISL:MHPA:1,2012-10-03T22:00:00Z,30.6671,-87.9365,3.791,2.25,1111122 
DISL,ioos:station:DISL:MHPA:1,2012-10-03T22:30:00Z,30.6671,-87.9365,3.938,2.25,1111122 
DISL,ioos:station:DISL:MHPA:1,2012-10-03T23:00:00Z,30.6671,-87.9365,3.926,2.24,1111122 
DISL,ioos:station:DISL:MHPA:1,2012-10-03T23:30:00Z,30.6671,-87.9365,3.961,2.22,1111122 
DISL,ioos:station:DISL:MHPA:1,2012-10-04T00:00:00Z,30.6671,-87.9365,4.053,2.23,1111122 
DISL,ioos:station:DISL:MHPA:1,2012-10-04T00:30:00Z,30.6671,-87.9365,4.064,2.23,1111122 
DISL,ioos:station:DISL:MHPA:1,2012-10-04T01:00:00Z,30.6671,-87.9365,4.118,2.22,1111122 
DISL,ioos:station:DISL:MHPA:1,2012-10-04T01:30:00Z,30.6671,-87.9365,4.172,2.23,1111122 
DISL,ioos:station:DISL:MHPA:1,2012-10-04T02:00:00Z,30.6671,-87.9365,4.249,2.24,1111122 
DISL,ioos:station:DISL:MHPA:1,2012-10-04T02:30:00Z,30.6671,-87.9365,4.257,2.21,1111122 
DISL,ioos:station:DISL:MHPA:1,2012-10-04T03:00:00Z,30.6671,-87.9365,4.329,2.19,1111122 
DISL,ioos:station:DISL:MHPA:1,2012-10-04T03:30:00Z,30.6671,-87.9365,4.43,2.14,1111122 
DISL,ioos:station:DISL:MHPA:1,2012-10-04T04:00:00Z,30.6671,-87.9365,4.474,2.16,1111122 
DISL,ioos:station:DISL:MHPA:1,2012-10-04T04:30:00Z,30.6671,-87.9365,4.518,2.15,1111122 
DISL,ioos:station:DISL:MHPA:1,2012-10-04T05:00:00Z,30.6671,-87.9365,4.605,2.19,1111122 
DISL,ioos:station:DISL:MHPA:1,2012-10-04T05:30:00Z,30.6671,-87.9365,4.679,2.17,1111122 
DISL,ioos:station:DISL:MHPA:1,2012-10-04T06:00:00Z,30.6671,-87.9365,4.71,2.12,1111122 
DISL,ioos:station:DISL:MHPA:1,2012-10-04T06:30:00Z,30.6671,-87.9365,4.746,2.1,1111122 
DISL,ioos:station:DISL:MHPA:1,2012-10-04T07:00:00Z,30.6671,-87.9365,4.784,2.12,1111122 
DISL,ioos:station:DISL:MHPA:1,2012-10-04T07:30:00Z,30.6671,-87.9365,4.748,2.09,1111122 
DISL,ioos:station:DISL:MHPA:1,2012-10-04T08:00:00Z,30.6671,-87.9365,4.67,2.13,1111122 
DISL,ioos:station:DISL:MHPA:1,2012-10-04T08:30:00Z,30.6671,-87.9365,4.611,2.09,1111122 
DISL,ioos:station:DISL:MHPA:1,2012-10-04T09:00:00Z,30.6671,-87.9365,4.52,2.09,1111122 
DISL,ioos:station:DISL:MHPA:1,2012-10-04T09:30:00Z,30.6671,-87.9365,4.443,2.06,1111122 
DISL,ioos:station:DISL:MHPA:1,2012-10-04T10:00:00Z,30.6671,-87.9365,4.298,2.04,1111122 
DISL,ioos:station:DISL:MHPA:1,2012-10-04T10:30:00Z,30.6671,-87.9365,4.167,2.04,1111122 
DISL,ioos:station:DISL:MHPA:1,2012-10-04T11:00:00Z,30.6671,-87.9365,4.07,2.07,1111122 
DISL,ioos:station:DISL:MHPA:1,2012-10-04T11:30:00Z,30.6671,-87.9365,3.952,1.91,1111122 
DISL,ioos:station:DISL:MHPA:1,2012-10-04T12:00:00Z,30.6671,-87.9365,3.829,1.98,1111122 
DISL,ioos:station:DISL:MHPA:1,2012-10-04T12:30:00Z,30.6671,-87.9365,3.709,2.01,1111122 
DISL,ioos:station:DISL:MHPA:1,2012-10-04T13:00:00Z,30.6671,-87.9365,3.613,1.99,1111122 
DISL,ioos:station:DISL:MHPA:1,2012-10-04T13:30:00Z,30.6671,-87.9365,3.523,1.99,1111122 
DISL,ioos:station:DISL:MHPA:1,2012-10-04T14:00:00Z,30.6671,-87.9365,3.442,1.93,1111122 
DISL,ioos:station:DISL:MHPA:1,2012-10-04T14:30:00Z,30.6671,-87.9365,3.352,1.88,1111122 
DISL,ioos:station:DISL:MHPA:1,2012-10-04T15:00:00Z,30.6671,-87.9365,3.261,1.91,1111122 
DISL,ioos:station:DISL:MHPA:1,2012-10-04T15:30:00Z,30.6671,-87.9365,3.173,1.98,1111122 
DISL,ioos:station:DISL:MHPA:1,2012-10-04T16:00:00Z,30.6671,-87.9365,3.096,1.95,1111122 
DISL,ioos:station:DISL:MHPA:1,2012-10-04T16:30:00Z,30.6671,-87.9365,3.044,1.99,1111122 
DISL,ioos:station:DISL:MHPA:1,2012-10-04T17:00:00Z,30.6671,-87.9365,3.001,2.03,1111122 
DISL,ioos:station:DISL:MHPA:1,2012-10-04T17:30:00Z,30.6671,-87.9365,2.971,1.98,1111122 
DISL,ioos:station:DISL:MHPA:1,2012-10-04T18:00:00Z,30.6671,-87.9365,2.975,1.95,1111122 
DISL,ioos:station:DISL:MHPA:1,2012-10-04T18:30:00Z,30.6671,-87.9365,2.957,1.95,1111122 
DISL,ioos:station:DISL:MHPA:1,2012-10-04T19:00:00Z,30.6671,-87.9365,2.953,1.94,1111122 
DISL,ioos:station:DISL:MHPA:1,2012-10-04T19:30:00Z,30.6671,-87.9365,2.975,1.94,1111122 
DISL,ioos:station:DISL:MHPA:1,2012-10-04T20:00:00Z,30.6671,-87.9365,3.02,1.96,1111122 
DISL,ioos:station:DISL:MHPA:1,2012-10-04T20:30:00Z,30.6671,-87.9365,3.104,2.02,1111122 
DISL,ioos:station:DISL:MHPA:1,2012-10-04T21:00:00Z,30.6671,-87.9365,3.165,1.94,1111122 
DISL,ioos:station:DISL:MHPA:1,2012-10-04T21:30:00Z,30.6671,-87.9365,3.221,1.97,1111122 
DISL,ioos:station:DISL:MHPA:1,2012-10-04T22:00:00Z,30.6671,-87.9365,3.313,1.95,1111122 
DISL,ioos:station:DISL:MHPA:1,2012-10-04T22:30:00Z,30.6671,-87.9365,3.374,1.96,1111122 
DISL,ioos:station:DISL:MHPA:1,2012-10-04T23:00:00Z,30.6671,-87.9365,3.456,1.96,1111122 
DISL,ioos:station:DISL:MHPA:1,2012-10-04T23:30:00Z,30.6671,-87.9365,3.535,1.98,1111122 
DISL,ioos:station:DISL:MHPA:1,2012-10-05T00:00:00Z,30.6671,-87.9365,3.586,1.93,1111122 
DISL,ioos:station:DISL:MHPA:1,2012-10-05T00:30:00Z,30.6671,-87.9365,3.648,1.92,1111122 
DISL,ioos:station:DISL:MHPA:1,2012-10-05T01:00:00Z,30.6671,-87.9365,3.74,2.02,1111122 
DISL,ioos:station:DISL:MHPA:1,2012-10-05T01:30:00Z,30.6671,-87.9365,3.821,2.0,1111122 
DISL,ioos:station:DISL:MHPA:1,2012-10-05T02:00:00Z,30.6671,-87.9365,3.919,2.01,1111122 
DISL,ioos:station:DISL:MHPA:1,2012-10-05T02:30:00Z,30.6671,-87.9365,4.019,1.9,1111122 
DISL,ioos:station:DISL:MHPA:1,2012-10-05T03:00:00Z,30.6671,-87.9365,4.074,1.93,1111122 
DISL,ioos:station:DISL:MHPA:1,2012-10-05T03:30:00Z,30.6671,-87.9365,4.148,1.92,1111122 
DISL,ioos:station:DISL:MHPA:1,2012-10-05T04:00:00Z,30.6671,-87.9365,4.232,1.94,1111122 
DISL,ioos:station:DISL:MHPA:1,2012-10-05T04:30:00Z,30.6671,-87.9365,4.323,1.85,1111122 
DISL,ioos:station:DISL:MHPA:1,2012-10-05T05:00:00Z,30.6671,-87.9365,4.355,1.75,1111122 
DISL,ioos:station:DISL:MHPA:1,2012-10-05T05:30:00Z,30.6671,-87.9365,4.437,1.84,1111122 
DISL,ioos:station:DISL:MHPA:1,2012-10-05T06:00:00Z,30.6671,-87.9365,4.526,1.84,1111122 
DISL,ioos:station:DISL:MHPA:1,2012-10-05T06:30:00Z,30.6671,-87.9365,4.561,1.89,1111122 
DISL,ioos:station:DISL:MHPA:1,2012-10-05T07:00:00Z,30.6671,-87.9365,4.587,1.82,1111122 
DISL,ioos:station:DISL:MHPA:1,2012-10-05T07:30:00Z,30.6671,-87.9365,4.567,1.89,1111122 
DISL,ioos:station:DISL:MHPA:1,2012-10-05T08:00:00Z,30.6671,-87.9365,4.527,1.83,1111122 
DISL,ioos:station:DISL:MHPA:1,2012-10-05T08:30:00Z,30.6671,-87.9365,4.488,1.82,1111122 
DISL,ioos:station:DISL:MHPA:1,2012-10-05T09:00:00Z,30.6671,-87.9365,4.404,1.73,1111122 
DISL,ioos:station:DISL:MHPA:1,2012-10-05T09:30:00Z,30.6671,-87.9365,4.332,1.74,1111122 
DISL,ioos:station:DISL:MHPA:1,2012-10-05T10:00:00Z,30.6671,-87.9365,4.236,1.82,1111122 
DISL,ioos:station:DISL:MHPA:1,2012-10-05T10:30:00Z,30.6671,-87.9365,4.108,1.68,1111122 
DISL,ioos:station:DISL:MHPA:1,2012-10-05T11:00:00Z,30.6671,-87.9365,3.995,1.79,1111122 
DISL,ioos:station:DISL:MHPA:1,2012-10-05T11:30:00Z,30.6671,-87.9365,3.888,1.81,1111122 
DISL,ioos:station:DISL:MHPA:1,2012-10-05T12:00:00Z,30.6671,-87.9365,3.791,1.71,1111122 
DISL,ioos:station:DISL:MHPA:1,2012-10-05T12:30:00Z,30.6671,-87.9365,3.694,1.77,1111122 
DISL,ioos:station:DISL:MHPA:1,2012-10-05T13:00:00Z,30.6671,-87.9365,3.572,1.74,1111122 
DISL,ioos:station:DISL:MHPA:1,2012-10-05T13:30:00Z,30.6671,-87.9365,3.463,1.69,1111122 
DISL,ioos:station:DISL:MHPA:1,2012-10-05T14:00:00Z,30.6671,-87.9365,3.347,1.8,1111122 
DISL,ioos:station:DISL:MHPA:1,2012-10-05T14:30:00Z,30.6671,-87.9365,3.27,1.78,1111122 
DISL,ioos:station:DISL:MHPA:1,2012-10-05T15:00:00Z,30.6671,-87.9365,3.206,1.66,1111122 
DISL,ioos:station:DISL:MHPA:1,2012-10-05T15:30:00Z,30.6671,-87.9365,3.143,1.65,1111122 
DISL,ioos:station:DISL:MHPA:1,2012-10-05T16:00:00Z,30.6671,-87.9365,3.103,1.65,1111122 
DISL,ioos:station:DISL:MHPA:1,2012-10-05T16:30:00Z,30.6671,-87.9365,3.097,1.71,1111122 
DISL,ioos:station:DISL:MHPA:1,2012-10-05T17:00:00Z,30.6671,-87.9365,3.074,1.72,1111122 
DISL,ioos:station:DISL:MHPA:1,2012-10-05T17:30:00Z,30.6671,-87.9365,3.026,1.71,1111122 
DISL,ioos:station:DISL:MHPA:1,2012-10-05T18:00:00Z,30.6671,-87.9365,3.001,1.62,1111122 
DISL,ioos:station:DISL:MHPA:1,2012-10-05T18:30:00Z,30.6671,-87.9365,3.005,1.59,1111122 
DISL,ioos:station:DISL:MHPA:1,2012-10-05T19:00:00Z,30.6671,-87.9365,3.021,1.63,1111122 
DISL,ioos:station:DISL:MHPA:1,2012-10-05T19:30:00Z,30.6671,-87.9365,3.07,1.69,1111122 
DISL,ioos:station:DISL:MHPA:1,2012-10-05T20:00:00Z,30.6671,-87.9365,3.126,1.69,1111122 
DISL,ioos:station:DISL:MHPA:1,2012-10-05T20:30:00Z,30.6671,-87.9365,3.177,1.75,1111122 
DISL,ioos:station:DISL:MHPA:1,2012-10-05T21:00:00Z,30.6671,-87.9365,3.304,1.66,1111122 
DISL,ioos:station:DISL:MHPA:1,2012-10-05T21:30:00Z,30.6671,-87.9365,3.43,1.51,1111122 
DISL,ioos:station:DISL:MHPA:1,2012-10-05T22:00:00Z,30.6671,-87.9365,3.53,1.41,1111122 
DISL,ioos:station:DISL:MHPA:1,2012-10-05T22:30:00Z,30.6671,-87.9365,3.618,1.31,1111122 
DISL,ioos:station:DISL:MHPA:1,2012-10-05T23:00:00Z,30.6671,-87.9365,3.781,1.4,1111122 
DISL,ioos:station:DISL:MHPA:1,2012-10-05T23:30:00Z,30.6671,-87.9365,3.949,1.25,1111122 
DISL,ioos:station:DISL:MHPA:1,2012-10-06T00:00:00Z,30.6671,-87.9365,4.04,1.14,1111122 
DISL,ioos:station:DISL:MHPA:1,2012-10-06T00:30:00Z,30.6671,-87.9365,4.151,1.26,1111122 
DISL,ioos:station:DISL:MHPA:1,2012-10-06T01:00:00Z,30.6671,-87.9365,4.177,1.38,1111122 
DISL,ioos:station:DISL:MHPA:1,2012-10-06T01:30:00Z,30.6671,-87.9365,4.157,1.37,1111122 
DISL,ioos:station:DISL:MHPA:1,2012-10-06T02:00:00Z,30.6671,-87.9365,4.246,1.62,1111122 
DISL,ioos:station:DISL:MHPA:1,2012-10-06T02:30:00Z,30.6671,-87.9365,4.316,1.59,1111122 
DISL,ioos:station:DISL:MHPA:1,2012-10-06T03:00:00Z,30.6671,-87.9365,4.366,1.42,1111122 
DISL,ioos:station:DISL:MHPA:1,2012-10-06T03:30:00Z,30.6671,-87.9365,4.447,1.49,1111122 
DISL,ioos:station:DISL:MHPA:1,2012-10-06T04:00:00Z,30.6671,-87.9365,4.515,1.37,1111122 
DISL,ioos:station:DISL:MHPA:1,2012-10-06T04:30:00Z,30.6671,-87.9365,4.59,1.44,1111122 
DISL,ioos:station:DISL:MHPA:1,2012-10-06T05:00:00Z,30.6671,-87.9365,4.636,1.4,1111122 
DISL,ioos:station:DISL:MHPA:1,2012-10-06T05:30:00Z,30.6671,-87.9365,4.73,1.48,1111122 
DISL,ioos:station:DISL:MHPA:1,2012-10-06T06:00:00Z,30.6671,-87.9365,4.76,1.44,1111122 
DISL,ioos:station:DISL:MHPA:1,2012-10-06T06:30:00Z,30.6671,-87.9365,4.777,1.45,1111122 
DISL,ioos:station:DISL:MHPA:1,2012-10-06T07:00:00Z,30.6671,-87.9365,4.763,1.64,1111122 
DISL,ioos:station:DISL:MHPA:1,2012-10-06T07:30:00Z,30.6671,-87.9365,4.765,1.39,1111122 
DISL,ioos:station:DISL:MHPA:1,2012-10-06T08:00:00Z,30.6671,-87.9365,4.721,1.47,1111122 
DISL,ioos:station:DISL:MHPA:1,2012-10-06T08:30:00Z,30.6671,-87.9365,4.674,1.51,1111122 
DISL,ioos:station:DISL:MHPA:1,2012-10-06T09:00:00Z,30.6671,-87.9365,4.613,1.49,1111122 
DISL,ioos:station:DISL:MHPA:1,2012-10-06T09:30:00Z,30.6671,-87.9365,4.534,1.44,1111122 
DISL,ioos:station:DISL:MHPA:1,2012-10-06T10:00:00Z,30.6671,-87.9365,4.433,1.34,1111122 
DISL,ioos:station:DISL:MHPA:1,2012-10-06T10:30:00Z,30.6671,-87.9365,4.302,1.32,1111122 
DISL,ioos:station:DISL:MHPA:1,2012-10-06T11:00:00Z,30.6671,-87.9365,4.202,1.28,1111122 
DISL,ioos:station:DISL:MHPA:1,2012-10-06T11:30:00Z,30.6671,-87.9365,4.114,1.43,1111122 
DISL,ioos:station:DISL:MHPA:1,2012-10-06T12:00:00Z,30.6671,-87.9365,3.989,1.5,1111122 
DISL,ioos:station:DISL:MHPA:1,2012-10-06T12:30:00Z,30.6671,-87.9365,3.862,1.46,1111122 
DISL,ioos:station:DISL:MHPA:1,2012-10-06T13:00:00Z,30.6671,-87.9365,3.739,1.51,1111122 
DISL,ioos:station:DISL:MHPA:1,2012-10-06T13:30:00Z,30.6671,-87.9365,3.669,1.54,1111122 
DISL,ioos:station:DISL:MHPA:1,2012-10-06T14:00:00Z,30.6671,-87.9365,3.57,1.57,1111122 
DISL,ioos:station:DISL:MHPA:1,2012-10-06T14:30:00Z,30.6671,-87.9365,3.465,1.45,1111122 
DISL,ioos:station:DISL:MHPA:1,2012-10-06T15:00:00Z,30.6671,-87.9365,3.381,1.44,1111122 
DISL,ioos:station:DISL:MHPA:1,2012-10-06T15:30:00Z,30.6671,-87.9365,3.303,1.44,1111122 